This is the latest recevied weather packets stored in our database for station/object KM4CNW. If no packets are shown the sender has not sent any weather packets the latest 10 day(s).
| Time | Temp. | Humidity | Pressure | Rain* | Wind** | Luminosity | Snow |
|---|---|---|---|---|---|---|---|
| 1777731525 | 12.78° C | 67% | 1008.3 hPa | 0 mm | - | 127 W/m² | - |
| 1777731223 | 12.78° C | 69% | 1008 hPa | 0 mm | - | 146 W/m² | - |
| 1777730920 | 12.78° C | 66% | 1008.1 hPa | 0 mm | - | 62 W/m² | - |
| 1777730618 | 12.78° C | 67% | 1007.9 hPa | 0 mm | - | 69 W/m² | - |
| 1777730314 | 12.78° C | 68% | 1008 hPa | 0 mm | - | 63 W/m² | - |
| 1777729707 | 12.78° C | 66% | 1008.4 hPa | 0 mm | - | 72 W/m² | - |
| 1777729100 | 12.78° C | 69% | 1007.9 hPa | 0 mm | - | 68 W/m² | - |
| 1777728797 | 12.78° C | 71% | 1007.9 hPa | 0 mm | - | 60 W/m² | - |
| 1777728494 | 12.78° C | 71% | 1007.9 hPa | 0 mm | - | 60 W/m² | - |
| 1777728191 | 12.22° C | 72% | 1007.9 hPa | 0 mm | - | 56 W/m² | - |
| 1777727889 | 12.22° C | 71% | 1007.9 hPa | 0 mm | - | 46 W/m² | - |
| 1777727282 | 12.22° C | 72% | 1007.5 hPa | 0 mm | - | 38 W/m² | - |
| 1777725466 | 12.78° C | 69% | 1007.8 hPa | 0 mm | - | 27 W/m² | - |
| 1777725163 | 12.78° C | 70% | 1007.5 hPa | 0 mm | - | 36 W/m² | - |
| 1777724859 | 12.78° C | 71% | 1007.2 hPa | 0 mm | - | 57 W/m² | - |
| 1777724555 | 12.22° C | 72% | 1007 hPa | 0 mm | - | 51 W/m² | - |
| 1777723344 | 12.22° C | 76% | 1007.4 hPa | 0 mm | - | 30 W/m² | - |
| 1777722739 | 12.22° C | 77% | 1007.3 hPa | 0 mm | - | 22 W/m² | - |
| 1777721829 | 11.67° C | 80% | 1007.4 hPa | 0 mm | - | 30 W/m² | - |
| 1777721527 | 11.67° C | 81% | 1007.3 hPa | 0 mm | - | 22 W/m² | - |
| 1777721225 | 11.67° C | 83% | 1006.8 hPa | 0 mm | - | 25 W/m² | - |
| 1777720922 | 11.67° C | 84% | 1007 hPa | 0 mm | - | 26 W/m² | - |
| 1777720619 | 11.67° C | 85% | 1006.9 hPa | 0 mm | - | 20 W/m² | - |
| 1777720317 | 11.67° C | 87% | 1006.7 hPa | 0 mm | - | 15 W/m² | - |
| 1777720014 | 11.11° C | 88% | 1006.6 hPa | 0 mm | - | 10 W/m² | - |
* Rain latest hour (hover to see other rain measurements)
** Current wind speed in m/s (hover to see current wind gust speed)